Jaffrey, NH

3:22 AM EDT on August 25, 2019 (GMT -0400)
Jaffrey Airport-Silver Ranch

Weather History for KAFN - July, 2019

Change the Weather History Date:

Thursday, July 18, 2019

  Actual Average Record
Temperature  
Mean Temperature 67 °F -  
Max Temperature 75 °F 75 °F 91 °F (2006)
Min Temperature 61 °F 55 °F 52 °F (2001)
Cooling Degree Days 2    
Growing Degree Days 17 (Base 50)    
Moisture  
Dew Point 62 °F    
Average Humidity 78    
Maximum Humidity 93    
Minimum Humidity 55    
Precipitation  
Precipitation 0.00 in - - ()
Sea Level Pressure  
Sea Level Pressure 29.99 in    
Wind  
Wind Speed 2 mph (ENE)    
Max Wind Speed 8 mph    
Max Gust Speed -    
Visibility 9 miles    
Events      
Averages and records for this station are not official NWS values.
T = Trace of Precipitation, MM = Missing Value Source: NWS Daily Summary

Daily Weather History Graph

Daily Weather History Graph

Search for Another Location

Airport or City:

Astronomy

Jul. 18, 2019 Rise Set
Actual Time 5:25 AM EDT 8:22 PM EDT
Civil Twilight 4:51 AM EDT 8:56 PM EDT
Nautical Twilight 4:08 AM EDT 9:38 PM EDT
Astronomical Twilight 3:18 AM EDT 10:28 PM EDT
Moon 9:44 PM EDT (7/18) 6:52 AM EDT (7/18)
Length of Visible Light 16h 04m
Length of Day
14h 57m
Full, 97% of the Moon is Illuminated
Jul 18
Full
Jul 24
Last Quarter
Jul 31
New
Aug 7
First Quarter
Aug 15
Full

Hourly Weather History & Observations

Time (EDT) Temp. Dew Point Humidity Pressure Visibility Wind Dir Wind Speed Gust Speed Precip Events Conditions
12:47 AM 71.6 °F 68.0 °F 88% 29.96 in 10.0 mi Calm Calm - N/A   Scattered Clouds
12:52 AM 71.1 °F 68.0 °F 90% 29.96 in 10.0 mi Calm Calm - N/A   Scattered Clouds
1:36 AM 71.1 °F 69.1 °F 93% 29.96 in 10.0 mi Calm Calm - N/A   Mostly Cloudy
1:52 AM 71.1 °F 68.0 °F 90% 29.94 in 7.0 mi Calm Calm - N/A   Overcast
2:52 AM 71.1 °F 68.0 °F 90% 29.94 in 6.0 mi Calm Calm - N/A   Overcast
3:09 AM 71.1 °F 68.0 °F 90% 29.94 in 1.5 mi Variable 3.5 mph - N/A   Overcast
3:11 AM 70.0 °F 68.0 °F 93% 29.94 in 1.0 mi NNE 3.5 mph - N/A   Overcast
3:36 AM 70.0 °F 66.9 °F 90% 29.94 in 1.2 mi Calm Calm - N/A   Overcast
3:38 AM 70.0 °F 66.9 °F 90% 29.94 in 2.0 mi Calm Calm - N/A   Mostly Cloudy
3:52 AM 70.0 °F 66.9 °F 90% 29.94 in 6.0 mi Calm Calm - N/A   Mostly Cloudy
4:09 AM 70.0 °F 66.9 °F 90% 29.94 in 6.0 mi Calm Calm - N/A   Mostly Cloudy
4:18 AM 69.1 °F 66.9 °F 93% 29.94 in 8.0 mi Calm Calm - N/A   Mostly Cloudy
4:31 AM 69.1 °F 66.9 °F 93% 29.95 in 10.0 mi Calm Calm - N/A   Scattered Clouds
4:48 AM 69.8 °F 66.2 °F 88% 29.96 in 8.0 mi North 3.5 mph - N/A   Mostly Cloudy
4:52 AM 69.1 °F 66.9 °F 93% 29.96 in 7.0 mi Calm Calm - N/A   Mostly Cloudy
5:32 AM 69.1 °F 66.0 °F 90% 29.97 in 9.0 mi Variable 3.5 mph - N/A   Overcast
5:47 AM 69.8 °F 66.2 °F 88% 29.98 in 9.0 mi Calm Calm - N/A   Scattered Clouds
5:52 AM 69.1 °F 66.0 °F 90% 29.99 in 10.0 mi Variable 3.5 mph - N/A   Scattered Clouds
6:37 AM 69.1 °F 64.9 °F 87% 30.00 in 10.0 mi Calm Calm - N/A   Mostly Cloudy
6:52 AM 69.1 °F 64.9 °F 87% 30.01 in 10.0 mi Calm Calm - N/A   Overcast
7:27 AM 69.1 °F 64.0 °F 84% 30.03 in 10.0 mi Variable 3.5 mph - N/A   Overcast
7:52 AM 68.0 °F 64.0 °F 87% 30.03 in 10.0 mi North - - N/A   Overcast
8:52 AM 66.9 °F 63.0 °F 87% 30.05 in 10.0 mi ESE 4.6 mph - N/A   Overcast
9:32 AM 69.1 °F 61.0 °F 75% 30.04 in 10.0 mi Variable 3.5 mph - N/A   Overcast
9:52 AM 69.1 °F 59.0 °F 70% 30.04 in 10.0 mi Variable 4.6 mph - N/A   Mostly Cloudy
10:00 AM 70.0 °F 57.9 °F 65% 30.04 in 10.0 mi Variable 3.5 mph - N/A   Mostly Cloudy
10:19 AM 69.1 °F 57.0 °F 65% 30.05 in 10.0 mi Variable 6.9 mph - N/A   Mostly Cloudy
10:49 AM 69.8 °F 57.2 °F 64% 30.04 in 10.0 mi East 6.9 mph - N/A   Overcast
10:52 AM 70.0 °F 57.0 °F 63% 30.04 in 10.0 mi NE 8.1 mph - N/A   Mostly Cloudy
11:52 AM 71.1 °F 57.0 °F 61% 30.04 in 10.0 mi Variable 6.9 mph - N/A   Mostly Cloudy
12:42 PM 72.0 °F 57.0 °F 59% 30.02 in 10.0 mi North - - N/A   Mostly Cloudy
12:52 PM 72.0 °F 57.9 °F 61% 30.03 in 10.0 mi East 5.8 mph - N/A   Overcast
1:52 PM 72.0 °F 57.9 °F 61% 30.01 in 10.0 mi Variable 3.5 mph - N/A   Overcast
2:52 PM 73.9 °F 57.9 °F 57% 29.99 in 10.0 mi Variable 6.9 mph - N/A   Mostly Cloudy
3:31 PM 73.9 °F 57.0 °F 55% 29.99 in 10.0 mi Variable 4.6 mph - N/A   Scattered Clouds
3:41 PM 73.0 °F 57.0 °F 57% 29.99 in 10.0 mi Calm Calm - N/A   Mostly Cloudy
3:52 PM 73.0 °F 57.0 °F 57% 30.00 in 10.0 mi Variable 3.5 mph - N/A   Mostly Cloudy
4:52 PM 71.1 °F 57.0 °F 61% 29.99 in 10.0 mi Calm Calm - N/A   Overcast
5:52 PM 70.0 °F 57.0 °F 63% 30.00 in 10.0 mi SE 3.5 mph - N/A   Overcast
6:52 PM 69.1 °F 57.0 °F 65% 30.00 in 10.0 mi Calm Calm - N/A   Overcast
7:52 PM 68.0 °F 57.0 °F 68% 29.99 in 10.0 mi Calm Calm - N/A   Overcast
8:52 PM 66.9 °F 55.9 °F 68% 29.98 in 10.0 mi Calm Calm - N/A   Overcast
9:43 PM 64.0 °F 55.9 °F 75% 29.97 in 10.0 mi Calm Calm - N/A   Scattered Clouds
9:52 PM 63.0 °F 55.9 °F 78% 29.98 in 10.0 mi Calm Calm - N/A   Partly Cloudy
10:52 PM 61.0 °F 55.0 °F 81% 29.98 in 10.0 mi Calm Calm - N/A   Partly Cloudy
11:09 PM 62.1 °F 55.0 °F 78% 29.97 in 10.0 mi Calm Calm - N/A   Mostly Cloudy
11:52 PM 63.0 °F 55.9 °F 78% 29.96 in 10.0 mi Calm Calm - N/A   Overcast